Dewpoint
60 60 60 60 61 60 60 59 59 60 60 60 61 61 61 61 61 61 60 61 61 61 62 62 62 62 62 62 62 62 59 42 40 38 35 36 48 58 58 61 62 63 63 43 37 30 28 26 26 27 32 33 35 34 40 42 39 40 33 27 25 27 19 21 18 21 21 18 17 19 19 17 17 20 21 20 18 16 16 15 16 17 18 19 23 27 28 27
59 60 60 60 60 60 60 59 60 60 60 61 61 61 61 61 61 61 60 60 61 61 62 62 62 61 62 61 61 61 53 44 38 37 39 47 58 59 62 63 63 63 56 36 38 33 31 27 26 27 31 26 40 34 38 37 38 32 30 26 20 27 20 21 18 17 19 19 19 20 20 18 18 19 21 19 20 17 15 16 17 15 17 18 19 25 25 21
59 59 60 60 60 60 59 59 59 60 61 61 61 61 61 61 60 61 60 60 60 61 61 62 62 61 61 62 61 61 49 45 33 31 35 58 59 62 63 65 65 62 42 37 43 36 33 30 27 26 31 28 33 31 35 33 33 34 24 20 26 31 21 22 20 20 20 20 20 19 20 18 19 19 23 19 18 18 15 14 16 15 15 18 22 20 18 17
59 59 59 59 59 58 59 59 60 60 60 60 61 61 60 60 60 61 61 61 61 61 61 61 61 61 61 60 61 55 46 41 33 33 39 58 62 63 64 64 63 60 51 45 44 39 35 31 28 28 33 28 33 35 28 30 27 31 22 17 23 28 20 20 21 21 21 21 20 21 20 20 22 22 19 16 15 16 16 16 14 14 15 18 22 23 18 16
59 59 59 59 59 59 59 59 60 60 60 60 61 61 61 59 60 60 60 60 61 61 61 61 60 60 60 60 60 53 42 32 32 41 43 61 62 62 62 63 61 55 49 45 42 37 34 28 30 33 30 22 29 29 26 29 31 26 15 24 24 23 18 20 21 22 22 22 19 19 17 19 22 19 19 18 18 16 14 15 16 15 16 16 15 18 20 15
58 59 59 59 59 59 59 59 58 59 60 60 60 61 60 59 59 59 59 59 60 61 61 61 60 62 61 59 52 48 41 30 36 38 58 59 61 61 61 62 56 54 49 30 28 31 28 28 27 28 22 18 18 21 23 26 27 20 20 22 24 22 16 20 23 24 21 20 17 18 20 21 20 18 17 18 18 17 16 16 16 16 16 15 16 19 18 18
58 58 58 58 58 59 58 58 59 59 59 60 61 61 61 62 60 59 59 59 60 61 61 61 61 61 61 59 52 42 36 35 39 41 55 58 59 58 58 57 52 39 32 30 28 27 33 30 27 29 26 24 25 23 25 26 27 21 18 21 22 21 21 21 20 24 22 19 18 18 22 20 19 18 18 13 14 13 13 15 15 16 16 14 12 14 16 19
58 58 58 58 58 58 57 58 58 58 59 60 60 61 61 61 59 59 59 59 60 61 61 61 61 60 60 55 45 38 38 33 37 43 52 57 47 44 50 44 40 40 34 31 30 26 33 31 28 30 25 19 25 23 26 20 22 23 22 27 23 23 22 23 20 20 20 19 20 20 19 20 20 18 13 12 12 11 12 12 13 13 13 14 13 14 18 19
58 58 58 58 57 57 58 58 58 59 59 59 60 60 61 61 59 59 59 59 60 60 62 62 61 60 60 49 47 37 35 40 40 38 46 44 42 39 42 34 41 35 35 37 33 33 26 27 33 30 19 22 26 22 22 16 13 24 23 24 22 20 20 20 21 21 21 19 19 19 21 20 19 20 14 12 12 11 10 10 11 10 11 10 10 12 14 17
58 58 58 58 58 57 58 58 58 58 59 60 60 60 61 60 59 59 59 59 60 61 60 61 60 56 50 44 37 30 37 43 45 43 43 44 40 38 39 44 41 35 37 39 35 30 30 32 32 37 34 29 28 20 24 22 16 24 24 24 19 18 19 21 20 21 21 17 17 17 21 20 18 20 16 16 12 13 10 10 10 8 9 9 10 14 13 14
58 58 58 58 58 58 58 58 58 58 58 59 59 60 60 60 59 59 59 60 60 60 61 61 60 56 49 38 31 27 42 43 42 42 43 44 40 38 40 43 43 38 40 41 37 36 34 37 40 39 35 26 23 20 19 21 23 23 19 17 17 17 20 19 19 18 19 18 18 19 20 20 20 23 17 15 13 12 9 9 10 11 10 10 12 12 20 16
58 58 58 58 58 58 58 58 57 57 58 59 59 60 59 59 59 59 59 60 60 60 61 61 59 50 38 36 34 33 41 41 40 42 44 43 41 41 41 42 41 40 33 36 40 43 41 36 38 26 14 28 21 20 19 23 20 20 16 16 15 18 17 19 18 18 19 17 18 20 20 19 21 18 20 14 13 11 9 9 9 10 11 14 14 16 15 12
58 58 58 58 58 58 58 57 57 57 58 59 59 58 59 58 59 59 60 60 59 61 61 62 57 56 42 31 31 43 42 38 40 43 43 43 44 44 42 45 42 38 37 38 40 42 42 40 33 24 34 25 22 14 20 22 20 20 17 14 15 18 17 18 19 19 17 17 19 16 13 16 19 20 15 14 11 10 9 9 9 12 11 11 13 13 15 16
58 58 58 58 58 58 58 57 57 56 57 59 60 60 59 58 59 59 60 60 61 61 61 60 53 43 31 29 37 45 45 38 42 42 43 43 40 44 46 46 44 40 44 39 39 41 41 36 33 29 33 21 17 27 18 19 18 20 17 21 19 17 18 21 19 19 17 23 19 16 16 14 14 17 16 14 11 9 8 8 9 12 13 12 16 16 16 16
58 58 58 58 58 58 57 57 57 57 57 58 59 60 58 58 59 60 61 60 61 61 61 58 53 34 29 29 42 43 56 40 38 40 45 36 37 40 36 41 39 40 38 40 39 40 40 38 30 24 21 27 24 16 15 20 21 20 15 18 24 17 19 21 20 17 16 19 19 16 17 15 15 16 15 15 12 10 8 8 8 11 11 12 13 13 14 16
58 58 58 58 58 58 58 57 57 56 57 58 59 58 58 58 59 61 61 59 58 60 56 45 42 34 27 30 36 53 42 39 37 41 45 43 37 30 36 39 39 39 36 34 39 35 35 33 26 27 27 15 18 19 19 18 21 25 16 21 19 20 20 8 8 20 18 18 19 16 15 15 13 18 16 14 13 10 8 8 9 9 9 11 9 10 12 15
58 58 58 58 58 58 58 57 56 57 58 57 58 57 58 58 60 59 60 59 55 56 50 36 39 33 29 37 41 37 38 42 45 42 41 42 37 36 33 34 33 32 38 35 37 35 34 27 28 22 24 15 20 22 15 21 16 18 23 14 23 13 10 5 12 8 22 18 16 17 14 14 14 19 16 14 12 10 8 8 8 8 8 9 10 11 12 12
58 58 58 58 58 58 57 56 57 57 57 57 57 57 57 60 59 53 47 51 51 51 49 47 43 26 17 34 32 31 42 40 43 43 42 43 39 35 31 27 29 28 32 27 31 27 31 23 23 19 28 14 9 17 17 14 15 15 14 14 9 13 12 6 8 4 17 19 16 15 15 15 14 18 17 14 12 9 8 8 8 8 9 10 11 12 11 14
58 57 57 58 58 58 57 56 56 57 57 58 59 58 58 57 50 38 35 34 25 21 18 32 20 15 9 23 37 41 41 42 43 38 36 34 38 38 38 34 35 27 28 29 28 28 29 30 31 26 23 20 4 9 13 15 19 10 13 10 14 11 4 0 6 8 17 12 15 16 15 15 15 18 17 13 11 9 8 8 8 8 9 10 11 12 13 14
58 56 57 58 58 57 57 56 56 57 58 55 51 42 38 34 35 30 32 32 23 15 16 16 27 32 35 35 39 43 45 39 28 34 37 41 34 30 30 33 36 34 30 30 32 31 30 21 19 20 21 22 9 13 7 4 16 14 19 17 10 12 11 11 12 12 20 17 15 15 16 16 15 17 17 14 10 10 8 7 9 9 10 11 11 12 11 11
58 57 57 58 57 57 57 57 55 57 57 50 43 31 23 30 22 20 30 34 35 37 34 34 34 33 28 40 43 36 33 32 33 32 37 37 31 23 23 22 28 32 32 27 27 28 26 20 23 23 21 19 4 10 13 13 12 10 13 13 8 17 8 9 10 15 15 17 15 16 16 16 15 14 17 14 10 9 8 8 8 9 10 12 11 9 7 5
57 57 57 57 57 57 57 56 55 57 56 46 44 32 34 35 30 30 35 23 32 38 41 40 40 37 38 39 40 35 35 28 32 35 39 35 30 21 21 24 29 28 30 27 27 25 22 21 23 24 26 11 10 12 13 10 15 16 8 15 14 11 17 15 17 17 17 17 14 15 13 13 13 13 15 14 10 10 9 9 9 9 11 12 10 5 4 7
57 57 56 57 57 57 57 55 56 56 46 43 43 45 44 47 47 46 41 37 36 39 41 39 37 37 36 36 39 36 27 25 24 32 33 33 27 25 23 26 27 25 25 20 24 21 25 27 27 23 13 11 13 15 13 15 18 11 14 12 10 17 15 13 13 20 19 16 15 15 13 13 13 12 12 15 12 11 12 11 14 12 11 11 8 4 2 3
57 56 57 57 57 57 56 54 55 50 45 45 46 44 47 46 46 46 39 32 27 29 39 41 39 38 36 33 37 32 28 28 24 27 33 26 21 26 23 27 23 24 24 18 24 23 23 26 18 16 18 14 14 19 13 11 9 21 18 16 13 14 14 13 12 20 17 15 20 14 12 10 11 10 11 12 15 11 12 14 13 15 17 14 15 12 7 2
55 55 56 57 56 56 55 54 45 44 45 46 45 47 46 45 46 46 38 25 23 32 42 40 42 43 39 43 42 30 32 27 27 25 31 25 21 21 20 23 24 23 24 16 19 18 14 14 24 18 22 20 19 17 21 19 12 21 24 17 15 14 13 17 21 15 15 14 14 11 9 14 15 13 12 13 11 9 12 11 11 12 13 13 11 6 9 17
56 56 57 57 56 56 54 48 45 45 46 44 47 47 43 44 45 45 29 23 15 23 35 33 42 33 39 31 37 35 26 24 29 30 38 29 32 24 25 23 24 23 22 17 12 18 17 22 22 22 24 25 24 21 25 20 16 16 17 23 19 17 19 19 17 17 14 11 12 11 9 11 10 9 12 12 10 9 12 11 10 11 11 11 7 6 8 9
57 57 57 57 56 54 45 43 47 47 40 43 46 45 45 46 46 44 28 20 16 28 31 38 35 34 40 36 34 32 21 28 25 25 28 33 24 29 25 25 25 20 17 17 25 23 16 19 22 26 25 24 21 17 21 20 20 17 22 23 21 17 17 17 16 17 14 19 17 14 12 6 9 8 11 12 9 9 10 10 10 9 9 9 6 7 7 7
57 57 56 56 56 54 44 48 45 44 43 50 46 44 45 45 47 43 18 4 5 34 33 35 37 41 38 35 32 24 25 26 24 22 26 30 25 22 26 24 25 22 11 25 18 27 13 18 22 22 22 20 18 20 22 25 20 20 22 18 14 15 16 17 16 14 17 12 11 12 16 8 10 11 12 11 9 9 9 10 10 9 8 9 7 7 6 7
57 57 56 56 55 53 49 47 45 41 49 48 45 46 47 45 44 26 15 -3 15 33 37 32 39 34 34 32 30 30 29 28 25 27 30 25 30 20 23 22 26 25 18 24 23 25 22 20 24 25 23 20 23 25 25 25 20 20 23 21 19 19 17 15 14 13 15 8 11 12 13 9 12 14 12 11 10 9 9 9 10 10 8 7 6 5 5 6
57 57 56 54 50 47 45 47 48 49 48 45 44 44 47 44 39 26 12 4 30 26 28 32 29 29 31 28 28 29 26 26 24 22 22 18 24 24 21 20 18 18 20 23 21 26 24 28 32 24 23 23 24 24 27 24 22 23 23 19 22 21 20 20 18 15 11 7 14 15 13 10 13 13 11 11 12 10 10 10 10 11 9 5 4 3 6 7
57 57 55 52 46 47 46 42 47 46 44 44 47 47 44 33 27 24 5 14 17 30 30 30 26 31 27 26 25 26 27 25 26 22 21 22 20 21 18 22 30 27 23 23 20 24 24 24 20 22 27 24 22 22 24 26 25 22 19 17 18 20 17 14 12 17 7 11 13 16 14 11 9 10 14 12 11 11 11 10 9 10 9 5 4 5 5 7
56 56 54 52 51 50 43 44 47 44 45 47 47 41 26 18 26 17 17 26 13 23 25 27 30 30 27 32 29 24 25 26 25 22 22 21 22 20 22 21 23 19 22 21 20 24 22 22 25 25 32 23 21 19 18 26 25 21 19 18 13 14 13 11 5 8 8 13 14 2 8 7 7 10 13 14 12 12 12 10 9 10 8 4 4 5 7 8
56 54 54 52 52 49 49 50 47 45 47 49 42 32 24 20 11 22 18 23 7 27 25 31 29 30 29 28 28 30 31 26 27 22 28 26 22 25 27 25 27 22 16 22 21 21 23 25 25 25 23 28 23 18 16 19 21 18 16 17 15 10 6 12 13 9 11 15 16 3 5 2 8 7 8 8 8 13 13 11 10 10 6 2 4 7 9 11
56 54 52 52 51 52 51 48 47 46 47 47 31 29 26 15 15 34 20 22 20 32 33 32 31 30 28 26 28 30 26 29 26 24 26 25 25 24 25 26 26 24 22 21 20 19 15 18 21 24 23 26 22 21 21 22 19 17 22 19 21 16 12 16 14 15 18 19 13 8 3 8 5 10 5 4 3 3 7 7 6 6 4 4 5 8 10 9
55 53 51 50 51 51 51 49 47 47 46 40 28 26 24 21 21 19 24 24 26 30 30 31 30 28 29 28 28 30 28 23 28 25 25 25 24 25 25 24 27 27 25 21 25 17 20 20 22 24 21 25 22 25 25 22 21 21 21 17 12 16 21 17 17 13 14 11 12 5 9 11 7 9 12 4 2 2 7 4 6 3 5 6 7 7 6 7
52 51 50 50 51 51 51 50 48 49 46 29 24 23 23 22 18 22 19 28 29 28 29 28 28 26 26 26 26 28 29 24 26 26 25 25 25 25 25 26 26 25 23 21 19 15 19 18 23 22 20 24 23 21 19 24 17 18 14 13 18 21 18 13 12 10 16 11 9 8 7 12 14 4 3 5 -1 0 3 3 1 3 5 6 5 6 7 8
51 52 49 50 51 50 50 50 50 48 40 26 22 25 26 23 25 27 35 28 30 30 27 25 25 26 24 25 25 27 27 26 26 25 25 24 22 25 24 26 28 26 25 22 21 22 15 18 23 21 21 19 13 17 18 17 23 14 11 14 22 21 18 12 9 13 8 9 14 8 12 13 13 16 6 1 -2 -3 0 0 0 4 6 4 6 7 8 7
49 49 49 50 51 50 50 50 49 47 36 26 23 30 25 24 27 26 34 29 28 28 27 23 23 27 23 24 23 26 27 24 24 24 23 22 17 25 25 25 26 26 25 26 20 23 22 18 21 21 22 17 21 17 17 18 20 17 19 24 17 14 11 6 12 9 10 12 14 17 10 13 13 14 2 -0 -2 -4 -3 0 1 3 4 4 6 6 6 7
50 48 45 48 50 50 49 50 46 42 35 29 30 32 32 25 25 25 30 30 31 27 25 25 20 22 23 23 21 26 25 21 24 23 18 21 18 24 24 27 26 25 25 23 21 22 21 14 18 20 17 18 15 19 17 15 14 18 15 11 20 12 18 16 13 16 19 18 17 18 19 19 13 11 10 7 -1 -1 -4 -1 -0 1 4 4 5 5 5 7
48 45 42 48 50 50 50 48 44 38 34 34 33 34 31 29 27 25 28 28 26 25 25 24 24 19 23 23 24 21 25 24 23 23 20 21 20 25 22 26 27 25 23 24 23 25 19 21 15 14 19 18 12 14 18 13 12 3 7 5 8 10 16 15 7 13 14 15 16 17 17 20 15 10 10 9 2 0 -3 -1 1 2 4 5 5 6 8 8
49 45 44 48 50 50 48 44 40 36 33 33 33 32 32 31 30 29 27 30 30 29 24 25 25 22 22 22 21 23 22 25 24 21 22 22 19 15 24 25 26 24 24 23 22 22 16 17 19 10 13 14 18 19 19 19 17 10 9 10 10 10 9 9 14 9 14 15 16 16 17 22 18 9 7 8 4 2 -0 -1 1 3 3 5 7 7 9 9
46 38 42 49 49 48 44 40 40 40 38 35 34 34 33 37 33 32 30 29 31 27 28 26 27 25 24 22 22 24 24 24 24 22 23 21 23 20 25 27 25 24 23 22 23 24 22 20 17 15 15 16 18 22 19 20 18 19 14 15 15 13 15 16 16 18 12 11 16 17 15 18 10 7 7 8 5 2 0 1 2 4 4 6 7 8 9 10
44 40 47 48 49 46 43 38 39 40 38 39 37 38 37 35 33 33 31 29 29 28 27 26 26 25 26 24 24 23 24 23 25 23 25 26 24 22 26 27 26 25 24 18 22 18 28 14 12 16 19 20 11 18 18 18 14 13 13 17 14 11 14 17 19 19 18 16 12 13 12 16 8 15 10 4 5 4 1 1 4 5 5 6 7 8 9 10
45 44 43 49 49 48 41 32 32 36 38 39 39 37 37 36 34 31 33 32 30 28 27 26 26 25 25 27 24 22 25 19 25 25 25 27 26 23 24 27 24 24 24 21 22 26 17 21 18 14 13 18 17 13 14 13 12 5 8 12 14 16 17 19 18 19 16 19 14 16 16 19 16 17 8 7 5 3 3 5 6 5 7 8 8 8 10 12
46 46 45 46 48 47 39 35 29 32 36 36 37 36 36 36 37 35 33 33 32 29 27 27 26 26 26 26 25 24 27 21 21 27 24 27 27 23 20 26 26 23 26 29 34 27 22 21 19 13 15 14 13 9 13 11 12 8 12 12 14 14 14 8 11 14 13 17 17 17 17 18 12 12 5 4 4 3 4 6 7 7 7 7 8 10 12 12
43 37 43 41 45 44 43 43 40 34 32 34 34 35 36 35 35 37 36 34 33 31 29 30 29 26 26 25 24 24 24 26 23 22 25 24 25 20 21 20 23 24 31 35 30 25 18 22 19 19 19 17 19 18 18 21 7 10 10 10 10 13 13 14 16 16 16 18 18 18 18 18 19 5 5 4 3 2 4 7 6 8 9 9 9 12 12 13
43 38 39 33 42 41 40 42 39 40 35 35 32 32 33 35 34 32 37 34 34 32 31 30 28 26 26 25 25 24 25 24 26 24 25 25 25 20 23 21 26 30 34 30 31 23 20 19 20 19 21 20 21 21 21 20 16 15 16 13 10 11 15 17 14 14 16 16 15 19 20 20 20 19 8 5 4 3 4 6 7 8 9 10 11 12 19 13
39 40 39 39 36 33 36 37 41 39 39 36 31 32 31 31 33 32 33 36 33 34 31 28 30 28 26 26 26 25 24 25 25 24 24 26 22 20 21 24 20 28 30 23 28 23 21 22 23 21 20 21 22 22 23 21 19 19 21 21 13 9 15 15 16 16 17 18 18 21 22 22 20 19 16 9 6 4 3 6 7 8 9 11 12 14 16 14
45 40 39 40 34 36 37 37 40 39 39 38 34 32 29 29 30 33 31 32 34 32 32 28 28 29 29 28 27 25 25 22 24 27 26 27 26 22 20 22 23 23 23 22 24 23 21 22 22 23 22 22 22 22 23 22 22 22 22 22 24 15 11 13 15 16 15 18 19 20 20 20 20 20 15 13 10 9 5 7 9 9 9 11 12 13 13 13
43 42 37 40 37 35 37 37 39 39 36 38 35 33 31 28 27 31 32 32 32 32 34 31 28 29 30 29 28 25 25 25 25 25 29 28 27 26 23 25 22 21 21 21 23 23 22 22 25 22 22 22 22 23 24 23 23 23 23 23 24 24 24 22 19 19 19 18 18 17 18 18 19 17 15 13 11 10 8 8 8 9 11 12 12 13 13 13
47 47 44 40 37 37 36 37 37 37 35 36 36 34 32 30 28 29 32 33 30 30 32 32 32 30 31 30 29 28 28 27 28 27 28 29 27 29 26 26 25 22 22 21 22 21 24 22 24 23 22 23 25 24 25 24 23 23 23 24 24 24 23 24 23 23 21 21 20 18 17 16 16 14 12 11 10 9 8 8 8 9 11 13 13 13 13 14
50 46 47 43 37 39 36 37 37 37 34 35 35 35 33 32 31 30 29 33 34 32 32 33 33 32 31 30 30 30 30 30 30 30 29 30 32 30 28 28 27 25 22 22 24 23 24 23 22 23 22 22 23 22 21 20 20 20 21 21 22 23 24 24 24 24 22 21 20 18 17 17 17 13 10 10 10 9 9 9 9 11 13 13 13 14 14 14